Year,Month,Day,Hour,Minute,Value (Times are PST for temperature in C)
2009,05,23,00,00,8.70
2009,05,23,00,01,8.70
2009,05,23,00,02,8.70
2009,05,23,00,03,8.70
2009,05,23,00,04,8.70
2009,05,23,00,05,8.70
2009,05,23,00,06,8.60
2009,05,23,00,07,8.60
2009,05,23,00,08,8.60
2009,05,23,00,09,8.60
2009,05,23,00,10,8.70
2009,05,23,00,11,8.70
2009,05,23,00,12,8.70
2009,05,23,00,13,8.70
2009,05,23,00,14,8.70
2009,05,23,00,15,8.70
2009,05,23,00,16,8.60
2009,05,23,00,17,8.60
2009,05,23,00,18,8.60
2009,05,23,00,19,8.60
2009,05,23,00,20,8.60
2009,05,23,00,21,8.60
2009,05,23,00,22,8.60
2009,05,23,00,23,8.60
2009,05,23,00,24,8.60
2009,05,23,00,25,8.60
2009,05,23,00,26,8.60
2009,05,23,00,27,8.60
2009,05,23,00,28,8.60
2009,05,23,00,29,8.60
2009,05,23,00,30,8.60
2009,05,23,00,31,8.60
2009,05,23,00,32,8.60
2009,05,23,00,33,8.60
2009,05,23,00,34,8.60
2009,05,23,00,35,8.70
2009,05,23,00,36,8.70
2009,05,23,00,37,8.70
2009,05,23,00,38,8.70
2009,05,23,00,39,8.70
2009,05,23,00,40,8.70
2009,05,23,00,41,8.70
2009,05,23,00,42,8.70
2009,05,23,00,43,8.60
2009,05,23,00,44,8.60
2009,05,23,00,45,8.60
2009,05,23,00,46,8.60
2009,05,23,00,47,8.60
2009,05,23,00,48,8.60
2009,05,23,00,49,8.60
2009,05,23,00,50,8.60
2009,05,23,00,51,8.70
2009,05,23,00,52,8.70
2009,05,23,00,53,8.70
2009,05,23,00,54,8.70
2009,05,23,00,55,8.70
2009,05,23,00,56,8.70
2009,05,23,00,57,8.70
2009,05,23,00,58,8.60
2009,05,23,00,59,8.60
2009,05,23,01,00,8.60
2009,05,23,01,01,8.60
2009,05,23,01,02,8.60
2009,05,23,01,03,8.60
2009,05,23,01,04,8.60
2009,05,23,01,05,8.60
2009,05,23,01,06,8.60
2009,05,23,01,07,8.60
2009,05,23,01,08,8.60
2009,05,23,01,09,8.60
2009,05,23,01,10,8.60
2009,05,23,01,11,8.60
2009,05,23,01,12,8.60
2009,05,23,01,13,8.60
2009,05,23,01,14,8.60
2009,05,23,01,15,8.60
2009,05,23,01,16,8.50
2009,05,23,01,17,8.50
2009,05,23,01,18,8.50
2009,05,23,01,19,8.50
2009,05,23,01,20,8.50
2009,05,23,01,21,8.50
2009,05,23,01,22,8.50
2009,05,23,01,23,8.50
2009,05,23,01,24,8.50
2009,05,23,01,25,8.50
2009,05,23,01,26,8.50
2009,05,23,01,27,8.50
2009,05,23,01,28,8.50
2009,05,23,01,29,8.50
2009,05,23,01,30,8.50
2009,05,23,01,31,8.40
2009,05,23,01,32,8.40
2009,05,23,01,33,8.40
2009,05,23,01,34,8.40
2009,05,23,01,35,8.40
2009,05,23,01,36,8.50
2009,05,23,01,37,8.50
2009,05,23,01,38,8.50
2009,05,23,01,39,8.50
2009,05,23,01,40,8.50
2009,05,23,01,41,8.60
2009,05,23,01,42,8.60
2009,05,23,01,43,8.60
2009,05,23,01,44,8.60
2009,05,23,01,45,8.60
2009,05,23,01,46,8.60
2009,05,23,01,47,8.60
2009,05,23,01,48,8.60
2009,05,23,01,49,8.60
2009,05,23,01,50,8.60
2009,05,23,01,51,8.50
2009,05,23,01,52,8.50
2009,05,23,01,53,8.50
2009,05,23,01,54,8.40
2009,05,23,01,55,8.40
2009,05,23,01,56,8.40
2009,05,23,01,57,8.50
2009,05,23,01,58,8.40
2009,05,23,01,59,8.40
2009,05,23,02,00,8.40
2009,05,23,02,01,8.40
2009,05,23,02,02,8.40
2009,05,23,02,03,8.40
2009,05,23,02,04,8.30
2009,05,23,02,05,8.30
2009,05,23,02,06,8.30
2009,05,23,02,07,8.30
2009,05,23,02,08,8.30
2009,05,23,02,09,8.40
2009,05,23,02,10,8.50
2009,05,23,02,11,8.50
2009,05,23,02,12,8.60
2009,05,23,02,13,8.60
2009,05,23,02,14,8.60
2009,05,23,02,15,8.70
2009,05,23,02,16,8.70
2009,05,23,02,17,8.70
2009,05,23,02,18,8.60
2009,05,23,02,19,8.60
2009,05,23,02,20,8.60
2009,05,23,02,21,8.60
2009,05,23,02,22,8.70
2009,05,23,02,23,8.70
2009,05,23,02,24,8.70
2009,05,23,02,25,8.70
2009,05,23,02,26,8.60
2009,05,23,02,27,8.60
2009,05,23,02,28,8.60
2009,05,23,02,29,8.60
2009,05,23,02,30,8.60
2009,05,23,02,31,8.60
2009,05,23,02,32,8.50
2009,05,23,02,33,8.50
2009,05,23,02,34,8.40
2009,05,23,02,35,8.40
2009,05,23,02,36,8.40
2009,05,23,02,37,8.40
2009,05,23,02,38,8.30
2009,05,23,02,39,8.30
2009,05,23,02,40,8.30
2009,05,23,02,41,8.30
2009,05,23,02,42,8.30
2009,05,23,02,43,8.20
2009,05,23,02,44,8.20
2009,05,23,02,45,8.20
2009,05,23,02,46,8.30
2009,05,23,02,47,8.30
2009,05,23,02,48,8.30
2009,05,23,02,49,8.30
2009,05,23,02,50,8.30
2009,05,23,02,51,8.30
2009,05,23,02,52,8.30
2009,05,23,02,53,8.30
2009,05,23,02,54,8.30
2009,05,23,02,55,8.30
2009,05,23,02,56,8.30
2009,05,23,02,57,8.30
2009,05,23,02,58,8.30
2009,05,23,02,59,8.40
2009,05,23,03,00,8.40
2009,05,23,03,01,8.40
2009,05,23,03,02,8.40
2009,05,23,03,03,8.40
2009,05,23,03,04,8.40
2009,05,23,03,05,8.40
2009,05,23,03,06,8.40
2009,05,23,03,07,8.50
2009,05,23,03,08,8.50
2009,05,23,03,09,8.50
2009,05,23,03,10,8.50
2009,05,23,03,11,8.50
2009,05,23,03,12,8.50
2009,05,23,03,13,8.50
2009,05,23,03,14,8.50
2009,05,23,03,15,8.40
2009,05,23,03,16,8.40
2009,05,23,03,17,8.40
2009,05,23,03,18,8.40
2009,05,23,03,19,8.40
2009,05,23,03,20,8.40
2009,05,23,03,21,8.40
2009,05,23,03,22,8.40
2009,05,23,03,23,8.40
2009,05,23,03,24,8.40
2009,05,23,03,25,8.40
2009,05,23,03,26,8.40
2009,05,23,03,27,8.40
2009,05,23,03,28,8.40
2009,05,23,03,29,8.40
2009,05,23,03,30,8.40
2009,05,23,03,31,8.40
2009,05,23,03,32,8.40
2009,05,23,03,33,8.40
2009,05,23,03,34,8.40
2009,05,23,03,35,8.40
2009,05,23,03,36,8.30
2009,05,23,03,37,8.30
2009,05,23,03,38,8.30
2009,05,23,03,39,8.30
2009,05,23,03,40,8.20
2009,05,23,03,41,8.20
2009,05,23,03,42,8.20
2009,05,23,03,43,8.20
2009,05,23,03,44,8.20
2009,05,23,03,45,8.20
2009,05,23,03,46,8.20
2009,05,23,03,47,8.20
2009,05,23,03,48,8.20
2009,05,23,03,49,8.10
2009,05,23,03,50,8.10
2009,05,23,03,51,8.10
2009,05,23,03,52,8.10
2009,05,23,03,53,8.10
2009,05,23,03,54,8.10
2009,05,23,03,55,8.00
2009,05,23,03,56,8.00
2009,05,23,03,57,8.00
2009,05,23,03,58,8.00
2009,05,23,03,59,8.00
2009,05,23,04,00,7.90
2009,05,23,04,01,7.90
2009,05,23,04,02,7.90
2009,05,23,04,03,7.90
2009,05,23,04,04,7.90
2009,05,23,04,05,7.90
2009,05,23,04,06,7.90
2009,05,23,04,07,7.90
2009,05,23,04,08,7.90
2009,05,23,04,09,7.90
2009,05,23,04,10,7.90
2009,05,23,04,11,7.90
2009,05,23,04,12,7.90
2009,05,23,04,13,7.90
2009,05,23,04,14,7.90
2009,05,23,04,15,8.00
2009,05,23,04,16,8.00
2009,05,23,04,17,8.00
2009,05,23,04,18,8.00
2009,05,23,04,19,8.00
2009,05,23,04,20,8.00
2009,05,23,04,21,8.00
2009,05,23,04,22,8.00
2009,05,23,04,23,8.00
2009,05,23,04,24,8.00
2009,05,23,04,25,7.90
2009,05,23,04,26,7.90
2009,05,23,04,27,7.90
2009,05,23,04,28,7.90
2009,05,23,04,29,7.90
2009,05,23,04,30,7.90
2009,05,23,04,31,7.90
2009,05,23,04,32,7.90
2009,05,23,04,33,7.80
2009,05,23,04,34,7.80
2009,05,23,04,35,7.80
2009,05,23,04,36,7.80
2009,05,23,04,37,7.80
2009,05,23,04,38,7.80
2009,05,23,04,39,7.80
2009,05,23,04,40,7.70
2009,05,23,04,41,7.70
2009,05,23,04,42,7.70
2009,05,23,04,43,7.70
2009,05,23,04,44,7.70
2009,05,23,04,45,7.70
2009,05,23,04,46,7.70
2009,05,23,04,47,7.70
2009,05,23,04,48,7.70
2009,05,23,04,49,7.70
2009,05,23,04,50,7.70
2009,05,23,04,51,7.70
2009,05,23,04,52,7.70
2009,05,23,04,53,7.60
2009,05,23,04,54,7.60
2009,05,23,04,55,7.60
2009,05,23,04,56,7.60
2009,05,23,04,57,7.60
2009,05,23,04,58,7.60
2009,05,23,04,59,7.60
2009,05,23,05,00,7.60
2009,05,23,05,01,7.50
2009,05,23,05,02,7.50
2009,05,23,05,03,7.50
2009,05,23,05,04,7.50
2009,05,23,05,05,7.50
2009,05,23,05,06,7.50
2009,05,23,05,07,7.50
2009,05,23,05,08,7.50
2009,05,23,05,09,7.50
2009,05,23,05,10,7.50
2009,05,23,05,11,7.50
2009,05,23,05,12,7.40
2009,05,23,05,13,7.40
2009,05,23,05,14,7.40
2009,05,23,05,15,7.40
2009,05,23,05,16,7.40
2009,05,23,05,17,7.40
2009,05,23,05,18,7.40
2009,05,23,05,19,7.40
2009,05,23,05,20,7.40
2009,05,23,05,21,7.40
2009,05,23,05,22,7.40
2009,05,23,05,23,7.40
2009,05,23,05,24,7.40
2009,05,23,05,25,7.40
2009,05,23,05,26,7.40
2009,05,23,05,27,7.40
2009,05,23,05,28,7.40
2009,05,23,05,29,7.40
2009,05,23,05,30,7.40
2009,05,23,05,31,7.40
2009,05,23,05,32,7.40
2009,05,23,05,33,7.40
2009,05,23,05,34,7.50
2009,05,23,05,35,7.50
2009,05,23,05,36,7.50
2009,05,23,05,37,7.60
2009,05,23,05,38,7.60
2009,05,23,05,39,7.70
2009,05,23,05,40,7.80
2009,05,23,05,41,7.80
2009,05,23,05,42,7.80
2009,05,23,05,43,7.80
2009,05,23,05,44,7.80
2009,05,23,05,45,7.80
2009,05,23,05,46,7.80
2009,05,23,05,47,7.80
2009,05,23,05,48,7.80
2009,05,23,05,49,7.80
2009,05,23,05,50,7.80
2009,05,23,05,51,7.80
2009,05,23,05,52,7.80
2009,05,23,05,53,7.80
2009,05,23,05,54,7.70
2009,05,23,05,55,7.70
2009,05,23,05,56,7.70
2009,05,23,05,57,7.70
2009,05,23,05,58,7.70
2009,05,23,05,59,7.70
2009,05,23,06,00,7.70
2009,05,23,06,01,7.70
2009,05,23,06,02,7.70
2009,05,23,06,03,7.70
2009,05,23,06,04,7.70
2009,05,23,06,05,7.80
2009,05,23,06,06,7.80
2009,05,23,06,07,7.80
2009,05,23,06,08,7.90
2009,05,23,06,09,7.90
2009,05,23,06,10,8.00
2009,05,23,06,11,8.10
2009,05,23,06,12,8.20
2009,05,23,06,13,8.20
2009,05,23,06,14,8.30
2009,05,23,06,15,8.40
2009,05,23,06,16,8.40
2009,05,23,06,17,8.50
2009,05,23,06,18,8.60
2009,05,23,06,19,8.60
2009,05,23,06,20,8.70
2009,05,23,06,21,8.70
2009,05,23,06,22,8.70
2009,05,23,06,23,8.70
2009,05,23,06,24,8.70
2009,05,23,06,25,8.80
2009,05,23,06,26,8.80
2009,05,23,06,27,8.80
2009,05,23,06,28,8.80
2009,05,23,06,29,8.90
2009,05,23,06,30,8.90
2009,05,23,06,31,8.90
2009,05,23,06,32,8.90
2009,05,23,06,33,8.90
2009,05,23,06,34,8.90
2009,05,23,06,35,8.90
2009,05,23,06,36,8.80
2009,05,23,06,37,8.80
2009,05,23,06,38,8.80
2009,05,23,06,39,8.80
2009,05,23,06,40,8.70
2009,05,23,06,41,8.80
2009,05,23,06,42,8.80
2009,05,23,06,43,8.80
2009,05,23,06,44,8.90
2009,05,23,06,45,9.10
2009,05,23,06,46,9.10
2009,05,23,06,47,9.20
2009,05,23,06,48,9.30
2009,05,23,06,49,9.40
2009,05,23,06,50,9.50
2009,05,23,06,51,9.60
2009,05,23,06,52,9.60
2009,05,23,06,53,9.60
2009,05,23,06,54,9.70
2009,05,23,06,55,9.70
2009,05,23,06,56,9.80
2009,05,23,06,57,10.00
2009,05,23,06,58,10.10
2009,05,23,06,59,10.20
2009,05,23,07,00,10.30
2009,05,23,07,01,10.30
2009,05,23,07,02,10.40
2009,05,23,07,03,10.50
2009,05,23,07,04,10.60
2009,05,23,07,05,10.70
2009,05,23,07,06,10.80
2009,05,23,07,07,10.80
2009,05,23,07,08,10.80
2009,05,23,07,09,10.90
2009,05,23,07,10,10.90
2009,05,23,07,11,10.90
2009,05,23,07,12,11.00
2009,05,23,07,13,11.10
2009,05,23,07,14,11.10
2009,05,23,07,15,11.10
2009,05,23,07,16,11.20
2009,05,23,07,17,11.20
2009,05,23,07,18,11.20
2009,05,23,07,19,11.30
2009,05,23,07,20,11.30
2009,05,23,07,21,11.30
2009,05,23,07,22,11.30
2009,05,23,07,23,11.40
2009,05,23,07,24,11.40
2009,05,23,07,25,11.40
2009,05,23,07,26,11.40
2009,05,23,07,27,11.40
2009,05,23,07,28,11.40
2009,05,23,07,29,11.40
2009,05,23,07,30,11.40
2009,05,23,07,31,11.50
2009,05,23,07,32,11.50
2009,05,23,07,33,11.50
2009,05,23,07,34,11.50
2009,05,23,07,35,11.60
2009,05,23,07,36,11.60
2009,05,23,07,37,11.60
2009,05,23,07,38,11.60
2009,05,23,07,39,11.60
2009,05,23,07,40,11.60
2009,05,23,07,41,11.60
2009,05,23,07,42,11.70
2009,05,23,07,43,11.70
2009,05,23,07,44,11.70
2009,05,23,07,45,11.70
2009,05,23,07,46,11.70
2009,05,23,07,47,11.70
2009,05,23,07,48,11.70
2009,05,23,07,49,11.70
2009,05,23,07,50,11.70
2009,05,23,07,51,11.70
2009,05,23,07,52,11.80
2009,05,23,07,53,11.80
2009,05,23,07,54,11.80
2009,05,23,07,55,11.80
2009,05,23,07,56,11.80
2009,05,23,07,57,11.80
2009,05,23,07,58,11.80
2009,05,23,07,59,11.90
2009,05,23,08,00,11.90
2009,05,23,08,01,11.90
2009,05,23,08,02,11.90
2009,05,23,08,03,11.90
2009,05,23,08,04,12.00
2009,05,23,08,05,12.00
2009,05,23,08,06,12.10
2009,05,23,08,07,12.10
2009,05,23,08,08,12.10
2009,05,23,08,09,12.20
2009,05,23,08,10,12.20
2009,05,23,08,11,12.20
2009,05,23,08,12,12.20
2009,05,23,08,13,12.20
2009,05,23,08,14,12.20
2009,05,23,08,15,12.20
2009,05,23,08,16,12.20
2009,05,23,08,17,12.20
2009,05,23,08,18,12.20
2009,05,23,08,19,12.20
2009,05,23,08,20,12.20
2009,05,23,08,21,12.20
2009,05,23,08,22,12.20
2009,05,23,08,23,12.20
2009,05,23,08,24,12.20
2009,05,23,08,25,12.20
2009,05,23,08,26,12.20
2009,05,23,08,27,12.20
2009,05,23,08,28,12.20
2009,05,23,08,29,12.30
2009,05,23,08,30,12.30
2009,05,23,08,31,12.30
2009,05,23,08,32,12.40
2009,05,23,08,33,12.40
2009,05,23,08,34,12.50
2009,05,23,08,35,12.50
2009,05,23,08,36,12.60
2009,05,23,08,37,12.60
2009,05,23,08,38,12.70
2009,05,23,08,39,12.70
2009,05,23,08,40,12.80
2009,05,23,08,41,12.80
2009,05,23,08,42,12.80
2009,05,23,08,43,12.80
2009,05,23,08,44,12.80
2009,05,23,08,45,12.80
2009,05,23,08,46,12.80
2009,05,23,08,47,12.80
2009,05,23,08,48,12.80
2009,05,23,08,49,12.80
2009,05,23,08,50,12.90
2009,05,23,08,51,12.90
2009,05,23,08,52,12.90
2009,05,23,08,53,12.90
2009,05,23,08,54,12.90
2009,05,23,08,55,12.90
2009,05,23,08,56,13.00
2009,05,23,08,57,13.00
2009,05,23,08,58,13.10
2009,05,23,08,59,13.10
2009,05,23,09,00,13.10
2009,05,23,09,01,13.10
2009,05,23,09,02,13.20
2009,05,23,09,03,13.10
2009,05,23,09,04,13.10
2009,05,23,09,05,13.20
2009,05,23,09,06,13.20
2009,05,23,09,07,13.20
2009,05,23,09,08,13.30
2009,05,23,09,09,13.30
2009,05,23,09,10,13.30
2009,05,23,09,11,13.40
2009,05,23,09,12,13.40
2009,05,23,09,13,13.40
2009,05,23,09,14,13.50
2009,05,23,09,15,13.50
2009,05,23,09,16,13.50
2009,05,23,09,17,13.50
2009,05,23,09,18,13.50
2009,05,23,09,19,13.50
2009,05,23,09,20,13.60
2009,05,23,09,21,13.60
2009,05,23,09,22,13.60
2009,05,23,09,23,13.60
2009,05,23,09,24,13.60
2009,05,23,09,25,13.70
2009,05,23,09,26,13.60
2009,05,23,09,27,13.60
2009,05,23,09,28,13.70
2009,05,23,09,29,13.70
2009,05,23,09,30,13.70
2009,05,23,09,31,13.70
2009,05,23,09,32,13.80
2009,05,23,09,33,13.80
2009,05,23,09,34,13.80
2009,05,23,09,35,13.80
2009,05,23,09,36,13.70
2009,05,23,09,37,13.70
2009,05,23,09,38,13.60
2009,05,23,09,39,13.50
2009,05,23,09,40,13.40
2009,05,23,09,41,13.30
2009,05,23,09,42,13.30
2009,05,23,09,43,13.40
2009,05,23,09,44,13.40
2009,05,23,09,45,13.50
2009,05,23,09,46,13.50
2009,05,23,09,47,13.50
2009,05,23,09,48,13.50
2009,05,23,09,49,13.50
2009,05,23,09,50,13.50
2009,05,23,09,51,13.50
2009,05,23,09,52,13.50
2009,05,23,09,53,13.50
2009,05,23,09,54,13.40
2009,05,23,09,55,13.40
2009,05,23,09,56,13.20
2009,05,23,09,57,13.10
2009,05,23,09,58,13.10
2009,05,23,09,59,13.10
2009,05,23,10,00,13.10
2009,05,23,10,01,13.20
2009,05,23,10,02,13.30
2009,05,23,10,03,13.40
2009,05,23,10,04,13.40
2009,05,23,10,05,13.50
2009,05,23,10,06,13.60
2009,05,23,10,07,13.70
2009,05,23,10,08,13.70
2009,05,23,10,09,13.70
2009,05,23,10,10,13.70
2009,05,23,10,11,13.80
2009,05,23,10,12,13.80
2009,05,23,10,13,13.80
2009,05,23,10,14,13.80
2009,05,23,10,15,13.80
2009,05,23,10,16,13.80
2009,05,23,10,17,13.80
2009,05,23,10,18,13.80
2009,05,23,10,19,13.80
2009,05,23,10,20,13.80
2009,05,23,10,21,13.90
2009,05,23,10,22,13.90
2009,05,23,10,23,14.00
2009,05,23,10,24,14.10
2009,05,23,10,25,14.20
2009,05,23,10,26,14.30
2009,05,23,10,27,14.30
2009,05,23,10,28,14.30
2009,05,23,10,29,14.30
2009,05,23,10,30,14.20
2009,05,23,10,31,14.30
2009,05,23,10,32,14.30
2009,05,23,10,33,14.30
2009,05,23,10,34,14.30
2009,05,23,10,35,14.20
2009,05,23,10,36,14.10
2009,05,23,10,37,14.10
2009,05,23,10,38,14.10
2009,05,23,10,39,14.10
2009,05,23,10,40,14.10
2009,05,23,10,41,14.20
2009,05,23,10,42,14.30
2009,05,23,10,43,14.30
2009,05,23,10,44,14.30
2009,05,23,10,45,14.20
2009,05,23,10,46,14.20
2009,05,23,10,47,14.30
2009,05,23,10,48,14.20
2009,05,23,10,49,14.20
2009,05,23,10,50,14.20
2009,05,23,10,51,14.20
2009,05,23,10,52,14.20
2009,05,23,10,53,14.30
2009,05,23,10,54,14.20
2009,05,23,10,55,14.20
2009,05,23,10,56,14.30
2009,05,23,10,57,14.30
2009,05,23,10,58,14.30
2009,05,23,10,59,14.30
2009,05,23,11,00,14.30
2009,05,23,11,01,14.30
2009,05,23,11,02,14.30
2009,05,23,11,03,14.20
2009,05,23,11,04,14.20
2009,05,23,11,05,14.30
2009,05,23,11,06,14.30
2009,05,23,11,07,14.30
2009,05,23,11,08,14.40
2009,05,23,11,09,14.40
2009,05,23,11,10,14.40
2009,05,23,11,11,14.30
2009,05,23,11,12,14.40
2009,05,23,11,13,14.40
2009,05,23,11,14,14.50
2009,05,23,11,15,14.50
2009,05,23,11,16,14.60
2009,05,23,11,17,14.60
2009,05,23,11,18,14.70
2009,05,23,11,19,14.60
2009,05,23,11,20,14.50
2009,05,23,11,21,14.50
2009,05,23,11,22,14.60
2009,05,23,11,23,14.60
2009,05,23,11,24,14.50
2009,05,23,11,25,14.60
2009,05,23,11,26,14.60
2009,05,23,11,27,14.60
2009,05,23,11,28,14.60
2009,05,23,11,29,14.70
2009,05,23,11,30,14.70
2009,05,23,11,31,14.80
2009,05,23,11,32,14.80
2009,05,23,11,33,14.90
2009,05,23,11,34,15.00
2009,05,23,11,35,14.90
2009,05,23,11,36,14.80
2009,05,23,11,37,14.70
2009,05,23,11,38,14.60
2009,05,23,11,39,14.60
2009,05,23,11,40,14.50
2009,05,23,11,41,14.50
2009,05,23,11,42,14.50
2009,05,23,11,43,14.60
2009,05,23,11,44,14.70
2009,05,23,11,45,14.70
2009,05,23,11,46,14.80
2009,05,23,11,47,14.80
2009,05,23,11,48,14.80
2009,05,23,11,49,14.80
2009,05,23,11,50,14.70
2009,05,23,11,51,14.70
2009,05,23,11,52,14.60
2009,05,23,11,53,14.50
2009,05,23,11,54,14.50
2009,05,23,11,55,14.60
2009,05,23,11,56,14.80
2009,05,23,11,57,15.00
2009,05,23,11,58,15.00
2009,05,23,11,59,15.00
2009,05,23,12,00,15.10
2009,05,23,12,01,15.20
2009,05,23,12,02,15.30
2009,05,23,12,03,15.20
2009,05,23,12,04,15.00
2009,05,23,12,05,15.00
2009,05,23,12,06,15.00
2009,05,23,12,07,14.80
2009,05,23,12,08,14.80
2009,05,23,12,09,14.80
2009,05,23,12,10,14.80
2009,05,23,12,11,14.80
2009,05,23,12,12,14.80
2009,05,23,12,13,14.90
2009,05,23,12,14,15.00
2009,05,23,12,15,15.00
2009,05,23,12,16,15.00
2009,05,23,12,17,15.00
2009,05,23,12,18,15.00
2009,05,23,12,19,15.00
2009,05,23,12,20,15.00
2009,05,23,12,21,15.20
2009,05,23,12,22,15.30
2009,05,23,12,23,15.30
2009,05,23,12,24,15.30
2009,05,23,12,25,15.40
2009,05,23,12,26,15.30
2009,05,23,12,27,15.30
2009,05,23,12,28,15.30
2009,05,23,12,29,15.30
2009,05,23,12,30,15.30
2009,05,23,12,31,15.30
2009,05,23,12,32,15.20
2009,05,23,12,33,15.20
2009,05,23,12,34,15.20
2009,05,23,12,35,15.20
2009,05,23,12,36,15.30
2009,05,23,12,37,15.30
2009,05,23,12,38,15.40
2009,05,23,12,39,15.40
2009,05,23,12,40,15.50
2009,05,23,12,41,15.50
2009,05,23,12,42,15.40
2009,05,23,12,43,15.40
2009,05,23,12,44,15.30
2009,05,23,12,45,15.30
2009,05,23,12,46,15.20
2009,05,23,12,47,15.20
2009,05,23,12,48,15.30
2009,05,23,12,49,15.40
2009,05,23,12,50,15.50
2009,05,23,12,51,15.60
2009,05,23,12,52,15.80
2009,05,23,12,53,15.90
2009,05,23,12,54,16.00
2009,05,23,12,55,16.20
2009,05,23,12,56,16.30
2009,05,23,12,57,16.50
2009,05,23,12,58,16.60
2009,05,23,12,59,16.60
2009,05,23,13,00,16.60
2009,05,23,13,01,16.60
2009,05,23,13,02,16.50
2009,05,23,13,03,16.40
2009,05,23,13,04,16.40
2009,05,23,13,05,16.30
2009,05,23,13,06,16.30
2009,05,23,13,07,16.10
2009,05,23,13,08,15.90
2009,05,23,13,09,15.80
2009,05,23,13,10,15.80
2009,05,23,13,11,15.90
2009,05,23,13,12,16.00
2009,05,23,13,13,16.00
2009,05,23,13,14,16.00
2009,05,23,13,15,16.00
2009,05,23,13,16,16.00
2009,05,23,13,17,16.00
2009,05,23,13,18,16.00
2009,05,23,13,19,16.10
2009,05,23,13,20,16.10
2009,05,23,13,21,16.20
2009,05,23,13,22,16.20
2009,05,23,13,23,16.20
2009,05,23,13,24,16.10
2009,05,23,13,25,16.00
2009,05,23,13,26,16.00
2009,05,23,13,27,16.10
2009,05,23,13,28,16.10
2009,05,23,13,29,16.20
2009,05,23,13,30,16.20
2009,05,23,13,31,16.30
2009,05,23,13,32,16.20
2009,05,23,13,33,16.20
2009,05,23,13,34,16.20
2009,05,23,13,35,16.10
2009,05,23,13,36,16.10
2009,05,23,13,37,16.10
2009,05,23,13,38,16.00
2009,05,23,13,39,15.90
2009,05,23,13,40,16.00
2009,05,23,13,41,16.00
2009,05,23,13,42,16.10
2009,05,23,13,43,16.20
2009,05,23,13,44,16.40
2009,05,23,13,45,16.50
2009,05,23,13,46,16.70
2009,05,23,13,47,16.70
2009,05,23,13,48,16.80
2009,05,23,13,49,16.80
2009,05,23,13,50,16.80
2009,05,23,13,51,16.80
2009,05,23,13,52,16.90
2009,05,23,13,53,16.90
2009,05,23,13,54,17.00
2009,05,23,13,55,17.10
2009,05,23,13,56,17.20
2009,05,23,13,57,17.20
2009,05,23,13,58,17.20
2009,05,23,13,59,17.10
2009,05,23,14,00,17.10
2009,05,23,14,01,17.00
2009,05,23,14,02,16.90
2009,05,23,14,03,16.90
2009,05,23,14,04,16.80
2009,05,23,14,05,16.70
2009,05,23,14,06,16.60
2009,05,23,14,07,16.50
2009,05,23,14,08,16.50
2009,05,23,14,09,16.40
2009,05,23,14,10,16.30
2009,05,23,14,11,16.30
2009,05,23,14,12,16.30
2009,05,23,14,13,16.40
2009,05,23,14,14,16.40
2009,05,23,14,15,16.40
2009,05,23,14,16,16.50
2009,05,23,14,17,16.60
2009,05,23,14,18,16.60
2009,05,23,14,19,16.70
2009,05,23,14,20,16.80
2009,05,23,14,21,16.80
2009,05,23,14,22,16.90
2009,05,23,14,23,17.00
2009,05,23,14,24,17.10
2009,05,23,14,25,17.10
2009,05,23,14,26,17.00
2009,05,23,14,27,16.90
2009,05,23,14,28,16.80
2009,05,23,14,29,16.70
2009,05,23,14,30,16.70
2009,05,23,14,31,16.70
2009,05,23,14,32,16.80
2009,05,23,14,33,16.90
2009,05,23,14,34,16.90
2009,05,23,14,35,16.90
2009,05,23,14,36,16.80
2009,05,23,14,37,16.70
2009,05,23,14,38,16.70
2009,05,23,14,39,16.60
2009,05,23,14,40,16.50
2009,05,23,14,41,16.40
2009,05,23,14,42,16.30
2009,05,23,14,43,16.30
2009,05,23,14,44,16.30
2009,05,23,14,45,16.30
2009,05,23,14,46,16.40
2009,05,23,14,47,16.50
2009,05,23,14,48,16.50
2009,05,23,14,49,16.50
2009,05,23,14,50,16.50
2009,05,23,14,51,16.60
2009,05,23,14,52,16.70
2009,05,23,14,53,16.80
2009,05,23,14,54,16.90
2009,05,23,14,55,17.10
2009,05,23,14,56,17.20
2009,05,23,14,57,17.20
2009,05,23,14,58,17.30
2009,05,23,14,59,17.40
2009,05,23,15,00,17.50
2009,05,23,15,01,17.60
2009,05,23,15,02,17.70
2009,05,23,15,03,17.70
2009,05,23,15,04,17.60
2009,05,23,15,05,17.60
2009,05,23,15,06,17.60
2009,05,23,15,07,17.50
2009,05,23,15,08,17.50
2009,05,23,15,09,17.40
2009,05,23,15,10,17.30
2009,05,23,15,11,17.20
2009,05,23,15,12,17.10
2009,05,23,15,13,17.10
2009,05,23,15,14,17.00
2009,05,23,15,15,16.90
2009,05,23,15,16,16.80
2009,05,23,15,17,16.70
2009,05,23,15,18,16.70
2009,05,23,15,19,16.70
2009,05,23,15,20,16.60
2009,05,23,15,21,16.50
2009,05,23,15,22,16.50
2009,05,23,15,23,16.40
2009,05,23,15,24,16.40
2009,05,23,15,25,16.50
2009,05,23,15,26,16.60
2009,05,23,15,27,16.60
2009,05,23,15,28,16.60
2009,05,23,15,29,16.60
2009,05,23,15,30,16.70
2009,05,23,15,31,16.70
2009,05,23,15,32,16.70
2009,05,23,15,33,16.70
2009,05,23,15,34,16.80
2009,05,23,15,35,16.80
2009,05,23,15,36,17.00
2009,05,23,15,37,17.10
2009,05,23,15,38,17.10
2009,05,23,15,39,17.00
2009,05,23,15,40,16.90
2009,05,23,15,41,16.70
2009,05,23,15,42,16.60
2009,05,23,15,43,16.50
2009,05,23,15,44,16.50
2009,05,23,15,45,16.60
2009,05,23,15,46,16.70
2009,05,23,15,47,16.80
2009,05,23,15,48,16.80
2009,05,23,15,49,16.70
2009,05,23,15,50,16.60
2009,05,23,15,51,16.60
2009,05,23,15,52,16.50
2009,05,23,15,53,16.50
2009,05,23,15,54,16.60
2009,05,23,15,55,16.60
2009,05,23,15,56,16.70
2009,05,23,15,57,16.70
2009,05,23,15,58,16.70
2009,05,23,15,59,16.60
2009,05,23,16,00,16.60
2009,05,23,16,01,16.60
2009,05,23,16,02,16.60
2009,05,23,16,03,16.50
2009,05,23,16,04,16.50
2009,05,23,16,05,16.50
2009,05,23,16,06,16.50
2009,05,23,16,07,16.50
2009,05,23,16,08,16.60
2009,05,23,16,09,16.60
2009,05,23,16,10,16.60
2009,05,23,16,11,16.60
2009,05,23,16,12,16.60
2009,05,23,16,13,16.60
2009,05,23,16,14,16.70
2009,05,23,16,15,16.80
2009,05,23,16,16,16.90
2009,05,23,16,17,17.10
2009,05,23,16,18,17.20
2009,05,23,16,19,17.30
2009,05,23,16,20,17.30
2009,05,23,16,21,17.40
2009,05,23,16,22,17.40
2009,05,23,16,23,17.40
2009,05,23,16,24,17.50
2009,05,23,16,25,17.50
2009,05,23,16,26,17.60
2009,05,23,16,27,17.60
2009,05,23,16,28,17.60
2009,05,23,16,29,17.60
2009,05,23,16,30,17.60
2009,05,23,16,31,17.60
2009,05,23,16,32,17.60
2009,05,23,16,33,17.50
2009,05,23,16,34,17.40
2009,05,23,16,35,17.40
2009,05,23,16,36,17.50
2009,05,23,16,37,17.60
2009,05,23,16,38,17.70
2009,05,23,16,39,17.70
2009,05,23,16,40,17.80
2009,05,23,16,41,17.80
2009,05,23,16,42,17.90
2009,05,23,16,43,17.90
2009,05,23,16,44,18.00
2009,05,23,16,45,18.10
2009,05,23,16,46,18.20
2009,05,23,16,47,18.30
2009,05,23,16,48,18.30
2009,05,23,16,49,18.40
2009,05,23,16,50,18.40
2009,05,23,16,51,18.50
2009,05,23,16,52,18.50
2009,05,23,16,53,18.60
2009,05,23,16,54,18.60
2009,05,23,16,55,18.60
2009,05,23,16,56,18.60
2009,05,23,16,57,18.70
2009,05,23,16,58,18.70
2009,05,23,16,59,18.70
2009,05,23,17,00,18.80
2009,05,23,17,01,18.80
2009,05,23,17,02,18.90
2009,05,23,17,03,18.90
2009,05,23,17,04,18.80
2009,05,23,17,05,18.80
2009,05,23,17,06,18.70
2009,05,23,17,07,18.70
2009,05,23,17,08,18.70
2009,05,23,17,09,18.70
2009,05,23,17,10,18.70
2009,05,23,17,11,18.70
2009,05,23,17,12,18.70
2009,05,23,17,13,18.70
2009,05,23,17,14,18.70
2009,05,23,17,15,18.60
2009,05,23,17,16,18.60
2009,05,23,17,17,18.60
2009,05,23,17,18,18.70
2009,05,23,17,19,18.70
2009,05,23,17,20,18.70
2009,05,23,17,21,18.70
2009,05,23,17,22,18.80
2009,05,23,17,23,18.70
2009,05,23,17,24,18.70
2009,05,23,17,25,18.70
2009,05,23,17,26,18.80
2009,05,23,17,27,18.80
2009,05,23,17,28,18.70
2009,05,23,17,29,18.70
2009,05,23,17,30,18.70
2009,05,23,17,31,18.60
2009,05,23,17,32,18.60
2009,05,23,17,33,18.60
2009,05,23,17,34,18.60
2009,05,23,17,35,18.60
2009,05,23,17,36,18.60
2009,05,23,17,37,18.60